�������l�o���
Date,Time,MP-1(��Sv/h),MP-2(��Sv/h),MP-3(��Sv/h),MP-4(��Sv/h),MP-5(��Sv/h),MP-6(��Sv/h),MP-7(��Sv/h),MP-8(��Sv/h),����,����(m/s),���J
2017/07/23,00:00,0.963,1.524,1.026,1.822,1.264,0.520,0.956,0.883,��,4.5,��
2017/07/23,00:10,0.963,1.520,1.024,1.819,1.264,0.520,0.955,0.881,��쐼,4.1,��
2017/07/23,00:20,0.962,1.523,1.023,1.820,1.261,0.520,0.954,0.881,��쐼,4.6,��
2017/07/23,00:30,0.962,1.524,1.025,1.820,1.265,0.521,0.956,0.883,��,4.4,��
2017/07/23,00:40,0.962,1.523,1.022,1.820,1.265,0.520,0.954,0.883,��,4.9,��
2017/07/23,00:50,0.960,1.525,1.025,1.820,1.262,0.522,0.955,0.882,��,5.9,��
2017/07/23,01:00,0.963,1.523,1.025,1.821,1.266,0.520,0.955,0.883,��,6.0,��
2017/07/23,01:10,0.964,1.522,1.026,1.821,1.266,0.522,0.956,0.881,��,6.5,��
2017/07/23,01:20,0.963,1.524,1.025,1.824,1.262,0.521,0.958,0.883,��,7.7,��
2017/07/23,01:30,0.964,1.524,1.025,1.821,1.268,0.522,0.957,0.882,��쐼,6.7,��
2017/07/23,01:40,0.962,1.526,1.026,1.820,1.266,0.523,0.956,0.883,��,6.5,��
2017/07/23,01:50,0.963,1.524,1.026,1.819,1.263,0.522,0.956,0.881,��,5.9,��
2017/07/23,02:00,0.964,1.524,1.027,1.820,1.264,0.521,0.956,0.881,��,7.1,��
2017/07/23,02:10,0.963,1.525,1.027,1.822,1.265,0.523,0.955,0.882,��,5.9,��
2017/07/23,02:20,0.964,1.524,1.026,1.821,1.264,0.522,0.956,0.883,��,5.8,��
2017/07/23,02:30,0.962,1.526,1.027,1.818,1.265,0.524,0.957,0.883,��,5.9,��
2017/07/23,02:40,0.963,1.526,1.025,1.823,1.265,0.523,0.956,0.882,��,6.5,�L
2017/07/23,02:50,0.962,1.524,1.028,1.821,1.264,0.523,0.958,0.883,��,5.6,�L
2017/07/23,03:00,0.962,1.523,1.027,1.822,1.265,0.521,0.956,0.883,��,6.4,��
2017/07/23,03:10,0.962,1.524,1.027,1.823,1.265,0.523,0.955,0.885,��,7.6,��
2017/07/23,03:20,0.963,1.525,1.025,1.821,1.267,0.521,0.957,0.883,��,7.4,��
2017/07/23,03:30,0.962,1.524,1.025,1.822,1.266,0.523,0.957,0.881,��,6.6,��
2017/07/23,03:40,0.964,1.526,1.025,1.824,1.263,0.523,0.955,0.883,��,7.0,��
2017/07/23,03:50,0.965,1.523,1.025,1.822,1.264,0.521,0.958,0.884,��,6.5,�L
2017/07/23,04:00,0.966,1.523,1.026,1.823,1.265,0.522,0.956,0.884,��,6.6,�L
2017/07/23,04:10,0.964,1.523,1.026,1.821,1.267,0.523,0.957,0.884,��,5.5,�L
2017/07/23,04:20,0.963,1.525,1.026,1.822,1.268,0.521,0.957,0.883,��,6.8,�L
2017/07/23,04:30,0.961,1.524,1.026,1.822,1.264,0.521,0.955,0.882,��,6.0,��
2017/07/23,04:40,0.963,1.526,1.026,1.820,1.265,0.521,0.957,0.884,��,6.0,��
2017/07/23,04:50,0.964,1.523,1.025,1.818,1.264,0.522,0.957,0.884,��,6.6,��
2017/07/23,05:00,0.962,1.527,1.024,1.819,1.263,0.523,0.958,0.883,��,6.3,��
2017/07/23,05:10,0.962,1.526,1.028,1.822,1.266,0.521,0.957,0.883,��,6.0,��
2017/07/23,05:20,0.963,1.524,1.027,1.822,1.265,0.521,0.957,0.884,��,6.4,��
2017/07/23,05:30,0.961,1.524,1.025,1.823,1.266,0.521,0.959,0.881,��,6.5,��
2017/07/23,05:40,0.964,1.526,1.027,1.820,1.266,0.522,0.957,0.883,��쓌,7.6,�L
2017/07/23,05:50,0.966,1.526,1.028,1.823,1.265,0.522,0.957,0.884,��,6.7,��
2017/07/23,06:00,0.963,1.524,1.029,1.823,1.266,0.521,0.955,0.882,��,7.6,��
2017/07/23,06:10,0.961,1.525,1.026,1.823,1.266,0.521,0.956,0.883,��,8.4,��
2017/07/23,06:20,0.960,1.526,1.026,1.821,1.265,0.521,0.956,0.884,��,10.2,��
2017/07/23,06:30,0.959,1.527,1.025,1.822,1.268,0.523,0.957,0.884,��,9.6,��
2017/07/23,06:40,0.960,1.523,1.026,1.821,1.269,0.521,0.958,0.883,��,8.2,��
2017/07/23,06:50,0.961,1.526,1.023,1.824,1.267,0.522,0.956,0.884,��,7.6,�L
2017/07/23,07:00,0.961,1.528,1.027,1.821,1.265,0.522,0.956,0.884,��,7.8,�L
2017/07/23,07:10,0.961,1.526,1.026,1.825,1.268,0.522,0.957,0.884,��,9.4,�L
2017/07/23,07:20,0.961,1.528,1.027,1.823,1.267,0.524,0.958,0.884,��,7.4,�L
2017/07/23,07:30,0.963,1.527,1.027,1.823,1.269,0.523,0.959,0.884,��,8.7,�L
2017/07/23,07:40,0.960,1.529,1.028,1.822,1.268,0.523,0.958,0.882,��,7.6,�L
2017/07/23,07:50,0.963,1.526,1.028,1.824,1.268,0.524,0.958,0.885,��,6.4,�L
2017/07/23,08:00,0.965,1.528,1.027,1.823,1.268,0.526,0.957,0.884,��,7.4,�L
2017/07/23,08:10,0.966,1.530,1.029,1.827,1.268,0.526,0.958,0.885,��,7.6,�L
2017/07/23,08:20,0.966,1.530,1.029,1.824,1.269,0.525,0.958,0.885,��,8.3,�L
2017/07/23,08:30,0.966,1.530,1.029,1.824,1.269,0.525,0.958,0.885,��,8.9,�L
2017/07/23,08:40,0.967,1.535,1.029,1.826,1.269,0.523,0.958,0.885,��,8.9,�L
2017/07/23,08:50,0.967,1.532,1.031,1.823,1.269,0.526,0.957,0.885,��,9.1,��
2017/07/23,09:00,0.967,1.534,1.031,1.824,1.269,0.524,0.959,0.884,��,8.9,�L
2017/07/23,09:10,0.968,1.535,1.031,1.824,1.272,0.524,0.959,0.886,��,9.7,��
2017/07/23,09:20,0.966,1.533,1.030,1.827,1.272,0.523,0.958,0.883,��,9.4,��
2017/07/23,09:30,0.966,1.535,1.030,1.828,1.272,0.524,0.959,0.883,��,8.8,��
2017/07/23,09:40,0.966,1.534,1.029,1.828,1.271,0.525,0.959,0.881,��,8.4,��
2017/07/23,09:50,0.967,1.535,1.028,1.829,1.272,0.524,0.958,0.881,��,8.3,��
2017/07/23,10:00,0.968,1.534,1.029,1.829,1.270,0.524,0.958,0.881,��,6.6,�L
2017/07/23,10:10,0.967,1.535,1.030,1.827,1.273,0.525,0.959,0.883,��,5.9,��
2017/07/23,10:20,0.967,1.535,1.030,1.830,1.272,0.524,0.958,0.881,��,5.5,�L
2017/07/23,10:30,0.970,1.534,1.031,1.829,1.272,0.524,0.958,0.883,��,5.6,�L
2017/07/23,10:40,0.970,1.535,1.030,1.830,1.274,0.525,0.959,0.883,��,5.7,�L
2017/07/23,10:50,0.970,1.538,1.031,1.827,1.276,0.525,0.957,0.882,��,6.0,�L
2017/07/23,11:00,0.967,1.540,1.031,1.830,1.276,0.525,0.960,0.881,��,5.9,�L
2017/07/23,11:10,0.966,1.540,1.031,1.830,1.279,0.526,0.957,0.884,��,6.0,��
2017/07/23,11:20,0.969,1.539,1.029,1.829,1.279,0.527,0.958,0.882,��쐼,5.1,�L
2017/07/23,11:30,0.970,1.537,1.030,1.834,1.280,0.526,0.959,0.881,��쐼,5.3,�L
2017/07/23,11:40,0.972,1.540,1.032,1.831,1.278,0.526,0.959,0.883,��쐼,5.6,�L
2017/07/23,11:50,0.970,1.534,1.029,1.831,1.278,0.525,0.959,0.882,��,5.9,�L
2017/07/23,12:00,0.969,1.538,1.033,1.832,1.277,0.526,0.960,0.883,��쐼,6.6,�L
2017/07/23,12:10,0.969,1.539,1.033,1.831,1.276,0.525,0.958,0.882,��쐼,7.5,�L
2017/07/23,12:20,0.971,1.537,1.036,1.835,1.278,0.526,0.959,0.884,��,8.5,�L
2017/07/23,12:30,0.971,1.536,1.034,1.833,1.275,0.527,0.961,0.883,��쐼,8.6,�L
2017/07/23,12:40,0.970,1.536,1.033,1.830,1.273,0.528,0.962,0.883,��,5.8,�L
2017/07/23,12:50,0.971,1.535,1.034,1.829,1.274,0.530,0.960,0.883,��쐼,4.1,�L
2017/07/23,13:00,0.972,1.537,1.036,1.834,1.276,0.532,0.961,0.884,��쐼,5.7,�L
2017/07/23,13:10,0.972,1.534,1.037,1.833,1.276,0.530,0.960,0.885,��,5.7,�L
2017/07/23,13:20,0.975,1.540,1.036,1.830,1.275,0.530,0.961,0.884,��,6.1,�L
2017/07/23,13:30,0.973,1.536,1.035,1.833,1.276,0.528,0.959,0.883,��,5.5,�L
2017/07/23,13:40,0.973,1.535,1.036,1.834,1.274,0.528,0.962,0.885,��,6.4,��
2017/07/23,13:50,0.971,1.532,1.034,1.833,1.274,0.528,0.960,0.884,��,5.7,��
2017/07/23,14:00,0.969,1.537,1.036,1.829,1.275,0.529,0.959,0.882,��,6.3,��
2017/07/23,14:10,0.969,1.535,1.033,1.830,1.274,0.528,0.957,0.880,��,6.1,��
2017/07/23,14:20,0.971,1.535,1.030,1.831,1.275,0.527,0.960,0.881,��쐼,6.0,�L
2017/07/23,14:30,0.969,1.534,1.031,1.828,1.275,0.529,0.959,0.881,��쐼,6.8,�L
2017/07/23,14:40,0.972,1.533,1.035,1.830,1.272,0.529,0.960,0.882,��쐼,8.4,�L
2017/07/23,14:50,0.972,1.534,1.036,1.830,1.272,0.530,0.960,0.882,��,7.1,�L
2017/07/23,15:00,0.972,1.533,1.037,1.828,1.273,0.531,0.959,0.879,��,7.8,�L
2017/07/23,15:10,0.971,1.529,1.038,1.829,1.275,0.530,0.958,0.882,��,6.9,�L
2017/07/23,15:20,0.968,1.527,1.034,1.830,1.272,0.528,0.959,0.881,��,6.3,�L
2017/07/23,15:30,0.969,1.526,1.033,1.826,1.270,0.527,0.959,0.880,��,6.7,�L
2017/07/23,15:40,0.967,1.523,1.033,1.827,1.269,0.530,0.957,0.880,��,6.2,�L
2017/07/23,15:50,0.967,1.520,1.033,1.823,1.265,0.531,0.955,0.879,��,8.1,�L
2017/07/23,16:00,0.965,1.517,1.034,1.822,1.266,0.532,0.954,0.878,��,9.4,�L
2017/07/23,16:10,0.965,1.518,1.031,1.824,1.265,0.530,0.953,0.879,��,9.5,�L
2017/07/23,16:20,0.965,1.517,1.030,1.817,1.262,0.531,0.953,0.879,��,10.7,�L
2017/07/23,16:30,0.965,1.516,1.027,1.817,1.260,0.529,0.956,0.880,��,10.2,�L
2017/07/23,16:40,0.964,1.514,1.028,1.816,1.258,0.529,0.955,0.879,��,9.7,�L
2017/07/23,16:50,0.964,1.513,1.026,1.815,1.257,0.529,0.953,0.878,��,8.8,�L
2017/07/23,17:00,0.961,1.510,1.026,1.815,1.256,0.528,0.955,0.879,��쐼,8.1,�L
2017/07/23,17:10,0.961,1.511,1.024,1.808,1.254,0.526,0.952,0.879,��,8.5,�L
2017/07/23,17:20,0.960,1.512,1.024,1.811,1.256,0.526,0.952,0.877,��,9.6,�L
2017/07/23,17:30,0.958,1.509,1.025,1.812,1.252,0.528,0.951,0.878,��,8.5,�L
2017/07/23,17:40,0.960,1.510,1.024,1.810,1.254,0.525,0.952,0.875,��,8.4,�L
2017/07/23,17:50,0.956,1.510,1.022,1.808,1.253,0.527,0.951,0.877,��,8.0,�L
2017/07/23,18:00,0.958,1.510,1.025,1.812,1.250,0.526,0.950,0.876,��,8.3,�L
2017/07/23,18:10,0.962,1.510,1.025,1.810,1.252,0.525,0.950,0.875,��,8.3,�L
2017/07/23,18:20,0.959,1.508,1.025,1.808,1.249,0.526,0.949,0.875,��,7.7,�L
2017/07/23,18:30,0.959,1.506,1.023,1.805,1.249,0.526,0.948,0.874,��,8.1,�L
2017/07/23,18:40,0.957,1.507,1.021,1.800,1.249,0.528,0.947,0.877,��,8.2,�L
2017/07/23,18:50,0.958,1.506,1.022,1.804,1.248,0.525,0.947,0.876,��,8.4,�L
2017/07/23,19:00,0.957,1.505,1.019,1.804,1.247,0.525,0.949,0.875,��,7.7,�L
2017/07/23,19:10,0.956,1.506,1.018,1.799,1.249,0.525,0.949,0.876,��,7.0,�L
2017/07/23,19:20,0.953,1.502,1.019,1.798,1.247,0.523,0.946,0.876,��쐼,6.7,�L
2017/07/23,19:30,0.953,1.505,1.017,1.802,1.245,0.524,0.948,0.875,��쐼,6.6,�L
2017/07/23,19:40,0.952,1.499,1.019,1.796,1.246,0.522,0.947,0.873,��쐼,5.8,�L
2017/07/23,19:50,0.952,1.499,1.016,1.798,1.243,0.524,0.948,0.872,��쐼,5.4,�L
2017/07/23,20:00,0.953,1.498,1.017,1.799,1.243,0.523,0.945,0.873,��,5.8,�L
2017/07/23,20:10,0.954,1.499,1.017,1.795,1.243,0.524,0.945,0.875,��,4.5,�L
2017/07/23,20:20,0.955,1.498,1.018,1.798,1.247,0.526,0.948,0.876,��,3.7,�L
2017/07/23,20:30,0.957,1.500,1.018,1.797,1.245,0.526,0.947,0.875,��,4.4,�L
2017/07/23,20:40,0.955,1.500,1.021,1.793,1.243,0.527,0.947,0.874,��,6.6,�L
2017/07/23,20:50,0.958,1.499,1.022,1.794,1.243,0.529,0.949,0.873,��,6.0,�L
2017/07/23,21:00,0.957,1.496,1.022,1.791,1.242,0.528,0.946,0.872,��,6.2,�L
2017/07/23,21:10,0.956,1.498,1.023,1.792,1.243,0.527,0.945,0.875,��쓌,6.2,�L
2017/07/23,21:20,0.955,1.498,1.019,1.790,1.242,0.525,0.947,0.873,��,6.7,�L
2017/07/23,21:30,0.954,1.498,1.016,1.791,1.242,0.525,0.945,0.874,��,7.2,�L
2017/07/23,21:40,0.953,1.496,1.013,1.791,1.240,0.524,0.947,0.872,��,7.1,��
2017/07/23,21:50,0.952,1.498,1.013,1.789,1.238,0.523,0.946,0.873,��,6.9,��
2017/07/23,22:00,0.954,1.499,1.012,1.790,1.240,0.521,0.944,0.873,��,6.5,��
2017/07/23,22:10,0.949,1.496,1.013,1.790,1.238,0.521,0.944,0.871,��,5.0,��
2017/07/23,22:20,0.949,1.496,1.012,1.788,1.240,0.520,0.945,0.869,��,5.9,��
2017/07/23,22:30,0.950,1.491,1.010,1.787,1.239,0.520,0.944,0.873,��,5.9,��
2017/07/23,22:40,0.948,1.496,1.010,1.790,1.241,0.520,0.946,0.870,��,6.2,��
2017/07/23,22:50,0.950,1.496,1.010,1.788,1.240,0.520,0.944,0.873,��,6.0,��
2017/07/23,23:00,0.948,1.496,1.009,1.784,1.236,0.520,0.944,0.872,��,6.0,�L
2017/07/23,23:10,0.947,1.494,1.006,1.775,1.223,0.523,0.944,0.871,��쐼,4.4,�L
2017/07/23,23:20,0.948,1.495,1.009,1.775,1.226,0.525,0.943,0.871,��쐼,4.3,�L
2017/07/23,23:30,0.951,1.495,1.010,1.777,1.230,0.523,0.943,0.871,��,4.3,�L
2017/07/23,23:40,0.949,1.493,1.009,1.776,1.229,0.522,0.943,0.871,��,4.1,�L
2017/07/23,23:50,0.948,1.493,1.010,1.776,1.230,0.523,0.942,0.871,��쐼,4.4,�L
